Valentine, NE

4:28 PM CDT on June 23, 2017 (GMT -0500)
Miller Field

Weather History for KVTN - July, 2013

Change the Weather History Date:

Saturday, July 13, 2013

  Actual Average Record
Temperature  
Mean Temperature 79 °F 75 °F  
Max Temperature 89 °F 89 °F 107 °F (1954)
Min Temperature 68 °F 60 °F 41 °F (1950)
Degree Days  
Heating Degree Days 0 0  
Month to date heating degree days 0 2  
Since 1 June heating degree days 54 63  
Since 1 July heating degree days 0 2  
Cooling Degree Days 14 10  
Month to date cooling degree days 138 118  
Year to date cooling degree days 323 289  
Since 1 June cooling degree days 284 255  
Growing Degree Days 28 (Base 50)    
Moisture  
Dew Point 68 °F    
Average Humidity 75    
Maximum Humidity 91    
Minimum Humidity 59    
Precipitation  
Precipitation 0.24 in 0.11 in 2.40 in (2009)
Month to date precipitation 0.37 1.39  
Year to date precipitation 12.22 12.11  
Snow  
Snow 0.00 in 0.00 in 0.00 in ()
Month to date snowfall 0.0 0.0  
Since 1 June snowfall 0.0 0.0  
Since 1 July snowfall 0.0 0.0  
Snow Depth 0.00 in    
Sea Level Pressure  
Sea Level Pressure 29.91 in    
Wind  
Wind Speed 6 mph (NNE)    
Max Wind Speed 30 mph    
Max Gust Speed 41 mph    
Visibility 9 miles    
Events Rain , Thunderstorm    
T = Trace of Precipitation, MM = Missing Value Source: NWS Daily Summary

Daily Weather History Graph

Daily Weather History Graph

Search for Another Location

Airport or City:

Trip Planner

Search our weather history database for the weather conditions in past years. The results will help you decide how hot, cold, wet, or windy it might be!

Date:

Astronomy

Jul. 13, 2013 Rise Set
Actual Time 6:15 AM CDT 9:19 PM CDT
Civil Twilight 5:41 AM CDT 9:53 PM CDT
Nautical Twilight 4:57 AM CDT 10:37 PM CDT
Astronomical Twilight 4:05 AM CDT 11:29 PM CDT
Moon 11:42 AM CDT (7/13) 11:51 PM CDT (7/13)
Length of Visible Light 16h 12m
Length of Day
15h 04m
Waxing Crescent, 26% of the Moon is Illuminated
Jul 13
Waxing Crescent
Jul 15
First Quarter
Jul 22
Full
Jul 29
Last Quarter
Aug 6
New

Hourly Weather History & Observations

Time (CDT) Temp. Heat Index Dew Point Humidity Pressure Visibility Wind Dir Wind Speed Gust Speed Precip Events Conditions
12:52 AM 80.1 °F 82.3 °F 66.9 °F 64% 29.85 in 10.0 mi North 9.2 mph - N/A   Clear
1:52 AM 77.0 °F - 63.0 °F 62% 29.86 in 10.0 mi NNE 8.1 mph - N/A   Overcast
2:17 AM 75.2 °F - 64.4 °F 69% 30.02 in 10.0 mi WSW 20.7 mph 27.6 mph N/A Thunderstorm Overcast
2:34 AM 69.8 °F - 64.4 °F 83% 30.02 in 5.0 mi WNW 18.4 mph 35.7 mph 0.00 in Rain , Thunderstorm Rain
2:44 AM 69.8 °F - 64.4 °F 83% 30.01 in 5.0 mi NW 15.0 mph 28.8 mph 0.05 in Rain Light Rain
2:52 AM 69.1 °F - 64.9 °F 87% 29.93 in 8.0 mi WNW 20.7 mph 26.5 mph 0.05 in Rain , Thunderstorm Light Rain
3:07 AM 68.0 °F - 66.2 °F 94% 30.03 in 10.0 mi West 17.3 mph - 0.00 in   Overcast
3:16 AM 69.8 °F - 66.2 °F 88% 30.06 in 6.0 mi WSW 10.4 mph - 0.00 in Thunderstorm Overcast
3:18 AM 69.8 °F - 66.2 °F 88% 30.02 in 1.8 mi Variable 3.5 mph - 0.00 in Rain , Thunderstorm Heavy Thunderstorms and Rain
3:30 AM 68.0 °F - 66.2 °F 94% 29.98 in 3.0 mi NNW 9.2 mph - 0.18 in Rain , Thunderstorm Light Thunderstorms and Rain
3:52 AM 69.1 °F - 66.0 °F 90% 29.89 in 8.0 mi NNW 6.9 mph - 0.18 in Rain , Thunderstorm Light Rain
4:08 AM 69.8 °F - 66.2 °F 88% 29.95 in 10.0 mi North 8.1 mph - 0.01 in Rain Light Rain
4:52 AM 69.1 °F - 66.0 °F 90% 29.82 in 10.0 mi East 8.1 mph - 0.01 in   Scattered Clouds
5:52 AM 70.0 °F - 66.0 °F 87% 29.84 in 10.0 mi ENE 4.6 mph - 0.00 in   Clear
6:52 AM 69.1 °F - 66.0 °F 90% 29.87 in 10.0 mi NW 4.6 mph - N/A   Clear
7:52 AM 71.1 °F - 66.9 °F 87% 29.89 in 10.0 mi NNW 3.5 mph - N/A   Clear
8:52 AM 73.9 °F - 64.9 °F 73% 29.90 in 10.0 mi North 3.5 mph - N/A   Clear
9:52 AM 77.0 °F - 64.9 °F 66% 29.91 in 10.0 mi Calm Calm - N/A   Clear
10:52 AM 80.1 °F 82.1 °F 66.0 °F 62% 29.91 in 10.0 mi Variable 3.5 mph - N/A   Clear
11:52 AM 82.0 °F 84.9 °F 68.0 °F 62% 29.91 in 10.0 mi NE 6.9 mph - N/A   Clear
12:52 PM 81.0 °F 83.8 °F 68.0 °F 65% 29.90 in 10.0 mi NE 6.9 mph - 0.00 in   Clear
1:52 PM 82.0 °F 84.9 °F 68.0 °F 62% 29.91 in 10.0 mi ENE 4.6 mph - N/A   Clear
2:52 PM 82.0 °F 85.9 °F 70.0 °F 67% 29.91 in 10.0 mi ENE 6.9 mph - N/A   Partly Cloudy
3:52 PM 84.0 °F 89.6 °F 72.0 °F 67% 29.89 in 10.0 mi East 8.1 mph - N/A   Clear
4:52 PM 87.1 °F 93.6 °F 72.0 °F 61% 29.87 in 10.0 mi East 11.5 mph - N/A   Clear
5:52 PM 88.0 °F 94.7 °F 72.0 °F 59% 29.86 in 10.0 mi Variable 3.5 mph - N/A   Clear
6:52 PM 88.0 °F 94.7 °F 72.0 °F 59% 29.86 in 10.0 mi ESE 4.6 mph - N/A   Clear
7:52 PM 88.0 °F 94.7 °F 72.0 °F 59% 29.84 in 10.0 mi ENE 5.8 mph - N/A   Clear
8:52 PM 84.0 °F 91.2 °F 73.9 °F 72% 29.86 in 10.0 mi NE 5.8 mph - N/A   Clear
9:52 PM 80.1 °F 84.5 °F 73.9 °F 81% 29.86 in 10.0 mi ENE 5.8 mph - N/A   Clear
10:52 PM 79.0 °F - 75.0 °F 88% 29.89 in 10.0 mi NE 4.6 mph - N/A   Clear
11:52 PM 79.0 °F - 73.9 °F 84% 29.89 in 10.0 mi NE 4.6 mph - N/A   Clear